Regional Weather Roundup
Issued by NWS

Home | Current Version | Previous Version | Text Only | Print | Product List | Glossary On
Versions: 1 2 3 4 5 6 7 8 9 10 11 12 13 14 15 16 17 18 19 20 21 22 23 24 25 26 27 28 29 30 31 32 33 34 35 36 37 38 39 40 41 42 43 44 45 46 47 48 49 50
000
ASUS43 KLMK 041302
RWRKY
KENTUCKY REGIONAL WEATHER ROUNDUP
NATIONAL WEATHER SERVICE LOUISVILLE KY
900 AM EDT MON MAY 04 2015

NOTE "FAIR" INDICATES FEW OR NO CLOUDS BELOW 12,000 FEET
WITH NO SIGNIFICANT WEATHER AND/OR OBSTRUCTIONS TO VISIBILITY.

KYZ001>023-026-027-061>063-070>075-041400-
WESTERN AND SOUTH CENTRAL KENTUCKY

CITY           SKY/WX    TMP DP  RH WIND       PRES   REMARKS
PADUCAH        PTSUNNY   66  53  63 SW7       30.17R
HENDERSON      PTSUNNY   66  52  59 SW10      30.15R
OWENSBORO      MOSUNNY   67  55  65 S7        30.18R
HOPKINSVILLE   SUNNY     68  53  58 S8        30.20R
BOWLING GREEN  PTSUNNY   66  52  60 S8        30.21R
GLASGOW        NOT AVBL
$$

KYZ024-025-028>034-038-045-046-053-041400-
NORTH CENTRAL KENTUCKY

CITY           SKY/WX    TMP DP  RH WIND       PRES   REMARKS
LOUISVILLE/SDF PTSUNNY   66  52  60 SE3       30.19R
LOUISVILLE/LOU MOSUNNY   66  52  60 S6        30.19R
FORT KNOX      PTSUNNY   65  52  63 S8        30.18R
$$

KYZ035>037-039>044-047>052-055>060-089>105-041400-
NORTHEAST KENTUCKY

CITY           SKY/WX    TMP DP  RH WIND       PRES   REMARKS
LEXINGTON      MOSUNNY   65  52  62 S8        30.22R
COVINGTON      MOSUNNY   65  51  60 S8        30.17R
FRANKFORT      SUNNY     65  52  62 S5        30.20R
$$

KYZ054-064>069-076>088-106>120-041400-
SOUTHEAST KENTUCKY

CITY           SKY/WX    TMP DP  RH WIND       PRES   REMARKS
JACKSON        SUNNY     63  47  55 VRB3      30.25R
LONDON         SUNNY     62  48  60 S5        30.26R
SOMERSET       NOT AVBL
MIDDLESBORO    SUNNY     54  50  86 CALM      30.29S
MONTICELLO     SUNNY     64  54  70 CALM      30.28R
$$




USA.gov is the U.S. government's official web portal to all federal, state and local government web resources and services.